#timestamp,LO_Frequency,Hit,StdDev 
1563987615.9,286047001.7,N
1563987635.7,286047002.5,N
1563987655.6,286047000.5,N
1563987675.4,286047000.6,N
1563987695.3,286047001.0,N
1563987715.1,286047001.2,N
1563987735.8,286046998.5,N
1563987755.7,286047000.6,N
1563987775.5,286047000.8,N
1563987795.4,286047001.2,N
1563987815.2,286047000.9,N
1563987835.0,286047000.7,N
1563987835.9,286047000.7,N
1563987855.8,286047000.0,N
1563987875.6,286046999.0,N
1563987895.5,286046996.5,Y
1563987915.3,286046999.1,P
1563987935.1,286046996.8,P
1563987955.9,286046996.6,N
1563987975.7,286046999.6,N
1563987995.5,286046997.4,N
1563988015.4,286046995.5,N
1563988035.2,286046995.9,N
1563988055.1,286046998.0,N
1563988056.0,286046998.0,N
1563988075.8,286046996.2,N
1563988095.6,286046995.6,N
1563988115.5,286046995.9,N
1563988135.3,286046995.6,N
1563988155.1,286046996.1,N
1563988175.9,286046993.3,Y
1563988195.7,286046997.1,P
1563988215.6,286046999.6,P
1563988235.4,286046996.6,N
1563988255.2,286046996.9,N
1563988275.1,286046998.9,N
1563988276.0,286046998.9,N
1563988295.8,286046998.4,N
1563988315.7,286046998.6,N
1563988335.5,286046999.2,N
1563988355.3,286046999.0,N
1563988375.2,286046999.3,N
1563988395.0,286046999.4,N
1563988395.9,286046999.4,N
1563988415.8,286046996.7,Y
1563988435.6,286046999.0,P
1563988455.4,286046996.7,P
1563988475.3,286046996.5,P
1563988495.1,286046996.9,N
1563988515.9,286046998.4,N
1563988535.7,286046999.2,N
1563988555.5,286046999.0,N
1563988575.4,286046996.6,Y
1563988595.2,286046999.7,P
1563988615.0,286047000.2,N
1563988616.0,286047000.2,N
1563988635.8,286046999.8,N
1563988655.6,286047001.1,N
1563988675.5,286046998.4,N
1563988695.3,286046999.3,N
1563988715.1,286046998.7,N
1563988735.9,286046998.5,N
1563988755.7,286047001.0,N
1563988775.6,286046998.1,N
1563988795.4,286046999.7,N
1563988815.2,286047000.0,N
1563988835.1,286047000.8,N
1563988836.0,286047000.8,N
1563988855.8,286046998.7,N
1563988875.6,286046998.8,N
1563988895.5,286047000.8,N
1563988915.3,286047000.8,N
1563988935.2,286047000.3,N
1563988955.9,286046999.2,N
1563988975.7,286046998.4,N
1563988995.6,286047000.8,N
1563989045.4,286047002.6,E
1563989055.4,286046999.8,N
1563989075.2,286046998.1,P
1563989095.0,286046999.0,N
1563989095.9,286046999.0,N
1563989115.8,286046999.2,N
1563989135.6,286046996.7,Y
1563989155.5,286046998.6,P
1563989175.3,286047000.9,P
1563989195.1,286047000.0,N
1563989215.9,286047002.3,N
1563989235.7,286047002.5,N
1563989255.5,286047000.1,N
1563989275.4,286047001.1,N
1563989295.2,286046999.9,N
1563989315.1,286047001.0,N
1563989316.0,286047001.0,N
1563989335.8,286046999.1,N
1563989355.6,286046999.2,N
1563989375.5,286046999.3,N
1563989395.3,286046998.9,N
1563989415.2,286046998.3,N
1563989435.9,286046998.2,N
1563989455.7,286046999.3,N
1563989475.6,286046998.8,N
1563989495.4,286046998.9,N
1563989515.3,286047001.2,N
1563989535.1,286046998.4,N
1563989555.9,286046998.6,N
1563989575.7,286047000.6,N
1563989595.5,286046998.3,N
1563989615.4,286047001.1,N
1563989635.2,286047000.4,N
1563989655.0,286047000.9,N
1563989655.9,286047000.9,N
1563989675.8,286047000.7,N
1563989695.6,286047002.2,N
1563989715.5,286047002.8,N
1563989735.3,286046999.9,N
1563989755.1,286047002.4,N
1563989775.9,286047000.3,N
1563989795.7,286047000.8,N
1563989815.5,286047000.9,N
1563989835.4,286047000.4,N
1563989855.2,286046999.8,N
1563989875.1,286047002.8,N
1563989876.0,286047002.8,N
1563989895.8,286047001.0,N
1563989915.6,286047000.6,N
1563989935.5,286047000.1,N
1563989955.3,286047000.5,N
1563989975.2,286047001.6,N
1563989995.9,286047001.8,N
1563990015.7,286046999.8,N
1563990035.6,286046998.1,N
1563990055.4,286047000.9,N
1563990075.2,286047000.0,N
1563990095.1,286047002.8,N
1563990096.0,286047002.8,N
1563990115.8,286046999.8,N
1563990135.7,286047002.7,N
1563990155.5,286047002.7,N
1563990175.3,286047001.2,N
1563990195.2,286046998.2,N
1563990215.0,286046998.1,N
1563990215.9,286046998.1,N
1563990235.8,286046999.9,N
1563990255.6,286047002.5,N
1563990275.4,286047002.8,N
1563990295.3,286047001.3,N
1563990315.1,286047001.3,N
1563990335.8,286047002.8,N
1563990355.7,286047000.9,N
1563990375.5,286047000.2,N
1563990395.4,286047001.4,N
1563990415.2,286047004.1,N
1563990435.0,286047004.2,N
1563990435.9,286047004.2,N
1563990455.8,286047003.5,N
1563990475.6,286047003.5,N
1563990495.5,286047001.3,N
1563990515.3,286047001.9,N
1563990535.1,286047001.5,N
1563990555.9,286047001.5,N
1563990575.7,286047004.0,N
1563990595.5,286047004.4,N
1563990615.4,286046999.9,N
1563990635.2,286047002.7,N
1563990655.1,286047002.3,N
1563990656.0,286047002.3,N
1563990675.8,286047000.1,N
1563990695.6,286047002.6,N
1563990715.5,286047002.2,N
1563990735.3,286047003.9,N
1563990755.2,286047001.3,N
1563990775.9,286047003.1,N
1563990795.7,286047003.7,N
1563990815.6,286047003.5,N
1563990835.4,286047003.0,N
1563990855.2,286047005.9,Y
1563990875.1,286047004.4,P
1563990876.0,286047004.4,P
1563990895.8,286047001.7,N
1563990915.7,286047004.3,Y
1563990935.5,286046998.6,P
1563990955.3,286046999.3,N
1563990975.2,286046999.3,N
1563990995.0,286046999.0,N
1563990995.9,286046999.0,N
1563991015.8,286046997.0,N
1563991035.6,286046999.4,N
1563991055.4,286046999.5,N
1563991075.3,286046999.0,N
1563991095.1,286046997.0,N
1563991115.8,286046997.4,N
1563991135.7,286046997.8,N
1563991155.5,286046997.3,N
1563991175.4,286046997.8,N
1563991195.2,286046994.9,Y
